Location: B�hl
(48.6968°N, 8.1352°E)
Time: 23:25:42
(UTC+00:00)

Lacrosse 4 Rocket - Pass Details

Date: 08 March 2021
Orbit: 537 x 620 km, 68.0° (Epoch: 20 April)

Event Time Altitude Azimuth Distance (km) Brightness Sun altitude
Rises 17:54:20 0° 190° (S) 2,827 5.1 -6.1°
Reaches altitude 10° 17:56:38 10° 183° (S) 1,942 4.2 -6.5°
Maximum altitude 18:00:43 39° 114° (ESE) 922 2.0 -7.2°
Drops below altitude 10° 18:04:53 10° 46° (NE) 1,988 3.8 -7.9°
Sets 18:07:16 0° 39° (NE) 2,903 4.6 -8.3°
